Weather in Kustanayevka

Russia / Amur Oblast     50°48′00″N   128°15′46″E
temp.,
°C
wind,
m/s
gust,
m/s
humid.,
%
clouds,
%
prec.,
mm/h
press.,
hPa
HPBL,
m
18 april, sun
sun1800:00+3ssw37830 0.0 1012125
03:00+2ssw35810 0.0 101186
06:00+1s47760 0.0 1012114
09:00+7s57540 0.0 1011414
12:00+12s66430 0.0 1009963
15:00+14s66370 0.0 10061326
18:00+13s56413 0.0 1005841
21:00+8sse49610 0.0 1005146
19 april, mon
mon1900:00+6sse486981 0.0 1004112
03:00+5s48734 0.0 1003119
06:00+4w39745 0.0 1004219
09:00+3nnw11134986 0.0 1008910
12:00+5nw1113310 0.1 10091443
15:00+6nw1214220 0.1 10102108
18:00+4nnw1016240 0.0 10122253
21:000nnw1017310 0.0 10141554
20 april, tue
tue2000:00−1nw919330 0.0 10141577
03:00−2nw1018320 0.0 10131315
06:00−3nw1018310 0.0 10141271
09:000nw1015250 0.0 10151292
12:00+6nw913160 0.0 10151609
15:00+9nw812120 0.0 10141594
18:00+10nw58150 0.0 1014939
21:00+5ese22210 0.0 101510
21 april, wed
wed2100:00+4se45280 0.0 101652
03:00+2se47460 0.0 1015100
06:00+2sse47575 0.0 101696
09:00+10s56375 0.0 1015318
12:00+17s572731 0.0 1014856
15:00+21s78210 0.0 10131387
18:00+19s610265 0.0 1013767
21:00+13sse41142100 0.0 1015186
22 april, thu
thu2200:00+12se6144340 0.0 1016256
03:00+10sse514445 0.0 1017262
06:00+10sse819440 0.0 1018422
09:00+14sse1017365 0.0 1018620
12:00+20s101325100 0.0 10181201
15:00+23s81118100 0.0 10171702
18:00+19s51227100 0.0 1018327
21:00+15s484193 0.0 1020137